Wetterdaten: Mittwoch, 02.03.2016
Datum Zeit Temperatur Luftfeuchte Luftdruck Regen Wind Richtung Richtung Sonnenschein ET UV Solar Taupunkt Windchill Windben
02.03.2016 00:00 1,6 C 93 % 1010,5 hPa 0,0 l/m 2,0 km/h (1 Bft) SW 223 0 min 0,000 mm 0,0 UV-I 0 W/m 0,6 C 1,6 C 8,0 km/h (2 Bft)
02.03.2016 00:05 1,6 C 93 % 1010,4 hPa 0,0 l/m 0,5 km/h (0 Bft) SW 234 0 min 0,000 mm 0,0 UV-I 0 W/m 0,6 C 1,6 C 4,8 km/h (1 Bft)
02.03.2016 00:10 1,6 C 93 % 1010,3 hPa 0,0 l/m 0,0 km/h (0 Bft) SW 227 0 min 0,000 mm 0,0 UV-I 0 W/m 0,6 C 1,6 C 0,0 km/h (0 Bft)
02.03.2016 00:15 1,6 C 93 % 1010,3 hPa 0,0 l/m 0,3 km/h (0 Bft) SW 223 0 min 0,000 mm 0,0 UV-I 0 W/m 0,6 C 1,6 C 6,4 km/h (2 Bft)
02.03.2016 00:20 1,7 C 93 % 1010,3 hPa 0,0 l/m 0,4 km/h (0 Bft) SW 217 0 min 0,000 mm 0,0 UV-I 0 W/m 0,7 C 1,7 C 4,8 km/h (1 Bft)
02.03.2016 00:25 1,7 C 93 % 1010,2 hPa 0,0 l/m 0,4 km/h (0 Bft) W-SW 245 0 min 0,000 mm 0,0 UV-I 0 W/m 0,7 C 1,7 C 4,8 km/h (1 Bft)
02.03.2016 00:30 1,7 C 93 % 1010,1 hPa 0,0 l/m 0,6 km/h (0 Bft) W-SW 245 0 min 0,000 mm 0,0 UV-I 0 W/m 0,7 C 1,7 C 4,8 km/h (1 Bft)
02.03.2016 00:35 1,7 C 94 % 1010,0 hPa 0,0 l/m 0,0 km/h (0 Bft) W-SW 245 0 min 0,000 mm 0,0 UV-I 0 W/m 0,8 C 1,7 C 0,0 km/h (0 Bft)
02.03.2016 00:40 1,7 C 94 % 1009,9 hPa 0,0 l/m 0,0 km/h (0 Bft) W-SW 245 0 min 0,000 mm 0,0 UV-I 0 W/m 0,8 C 1,7 C 0,0 km/h (0 Bft)
02.03.2016 00:45 1,7 C 94 % 1009,8 hPa 0,0 l/m 0,0 km/h (0 Bft) W-SW 245 0 min 0,000 mm 0,0 UV-I 0 W/m 0,8 C 1,7 C 0,0 km/h (0 Bft)
02.03.2016 00:50 1,7 C 94 % 1009,7 hPa 0,0 l/m 0,0 km/h (0 Bft) W-SW 245 0 min 0,000 mm 0,0 UV-I 0 W/m 0,8 C 1,7 C 0,0 km/h (0 Bft)
02.03.2016 00:55 1,8 C 94 % 1009,5 hPa 0,0 l/m 0,0 km/h (0 Bft) W-SW 245 0 min 0,000 mm 0,0 UV-I 0 W/m 0,9 C 1,8 C 0,0 km/h (0 Bft)
02.03.2016 01:00 1,8 C 94 % 1009,4 hPa 0,0 l/m 0,0 km/h (0 Bft) W-SW 245 0 min 0,000 mm 0,0 UV-I 0 W/m 0,9 C 1,8 C 0,0 km/h (0 Bft)
02.03.2016 01:05 1,8 C 94 % 1009,3 hPa 0,0 l/m 0,0 km/h (0 Bft) NW 315 0 min 0,000 mm 0,0 UV-I 0 W/m 0,9 C 1,8 C 0,0 km/h (0 Bft)
02.03.2016 01:10 1,8 C 94 % 1009,3 hPa 0,0 l/m 0,5 km/h (0 Bft) S-SW 212 0 min 0,000 mm 0,0 UV-I 0 W/m 0,9 C 1,8 C 4,8 km/h (1 Bft)
02.03.2016 01:15 1,8 C 94 % 1009,3 hPa 0,0 l/m 0,9 km/h (0 Bft) S-SW 197 0 min 0,000 mm 0,0 UV-I 0 W/m 0,9 C 1,8 C 6,4 km/h (2 Bft)
02.03.2016 01:20 1,9 C 94 % 1009,3 hPa 0,0 l/m 0,0 km/h (0 Bft) W-SW 258 0 min 0,000 mm 0,0 UV-I 0 W/m 1,0 C 1,9 C 1,6 km/h (1 Bft)
02.03.2016 01:25 1,9 C 94 % 1009,2 hPa 0,0 l/m 0,0 km/h (0 Bft) W-NW 286 0 min 0,000 mm 0,0 UV-I 0 W/m 1,0 C 1,9 C 0,0 km/h (0 Bft)
02.03.2016 01:30 1,9 C 94 % 1009,0 hPa 0,0 l/m 0,0 km/h (0 Bft) W 269 0 min 0,000 mm 0,0 UV-I 0 W/m 1,0 C 1,9 C 1,6 km/h (1 Bft)
02.03.2016 01:35 1,9 C 94 % 1008,9 hPa 0,0 l/m 0,4 km/h (0 Bft) SW 224 0 min 0,000 mm 0,0 UV-I 0 W/m 1,0 C 1,9 C 4,8 km/h (1 Bft)
02.03.2016 01:40 2,0 C 94 % 1008,9 hPa 0,0 l/m 0,1 km/h (0 Bft) S-SW 196 0 min 0,000 mm 0,0 UV-I 0 W/m 1,1 C 2,0 C 3,2 km/h (1 Bft)
02.03.2016 01:45 2,0 C 94 % 1008,8 hPa 0,0 l/m 0,6 km/h (0 Bft) W 265 0 min 0,000 mm 0,0 UV-I 0 W/m 1,1 C 2,0 C 6,4 km/h (2 Bft)
02.03.2016 01:50 2,1 C 94 % 1008,7 hPa 0,0 l/m 0,1 km/h (0 Bft) W 277 0 min 0,000 mm 0,0 UV-I 0 W/m 1,2 C 2,1 C 3,2 km/h (1 Bft)
02.03.2016 01:55 2,1 C 94 % 1008,6 hPa 0,0 l/m 0,0 km/h (0 Bft) W 277 0 min 0,000 mm 0,0 UV-I 0 W/m 1,2 C 2,1 C 0,0 km/h (0 Bft)
02.03.2016 02:00 2,1 C 94 % 1008,5 hPa 0,0 l/m 0,0 km/h (0 Bft) SW 227 0 min 0,000 mm 0,0 UV-I 0 W/m 1,2 C 2,1 C 0,0 km/h (0 Bft)
02.03.2016 02:05 2,2 C 94 % 1008,3 hPa 0,0 l/m 0,6 km/h (0 Bft) W-NW 295 0 min 0,000 mm 0,0 UV-I 0 W/m 1,3 C 2,2 C 4,8 km/h (1 Bft)
02.03.2016 02:10 2,2 C 94 % 1008,3 hPa 0,0 l/m 0,0 km/h (0 Bft) O 98 0 min 0,000 mm 0,0 UV-I 0 W/m 1,3 C 2,2 C 0,0 km/h (0 Bft)
02.03.2016 02:15 2,2 C 94 % 1008,3 hPa 0,0 l/m 0,0 km/h (0 Bft) W-NW 285 0 min 0,000 mm 0,0 UV-I 0 W/m 1,3 C 2,2 C 0,0 km/h (0 Bft)
02.03.2016 02:20 2,3 C 94 % 1008,2 hPa 0,0 l/m 0,2 km/h (0 Bft) W 277 0 min 0,000 mm 0,0 UV-I 0 W/m 1,4 C 2,3 C 4,8 km/h (1 Bft)
02.03.2016 02:25 2,3 C 94 % 1008,0 hPa 0,0 l/m 0,0 km/h (0 Bft) W-NW 297 0 min 0,000 mm 0,0 UV-I 0 W/m 1,4 C 2,3 C 0,0 km/h (0 Bft)
02.03.2016 02:30 2,3 C 94 % 1008,0 hPa 0,0 l/m 0,1 km/h (0 Bft) W 261 0 min 0,000 mm 0,0 UV-I 0 W/m 1,4 C 2,3 C 3,2 km/h (1 Bft)
02.03.2016 02:35 2,3 C 94 % 1007,8 hPa 0,0 l/m 0,0 km/h (0 Bft) W 261 0 min 0,000 mm 0,0 UV-I 0 W/m 1,4 C 2,3 C 0,0 km/h (0 Bft)
02.03.2016 02:40 2,4 C 94 % 1007,7 hPa 0,0 l/m 0,0 km/h (0 Bft) SW 221 0 min 0,000 mm 0,0 UV-I 0 W/m 1,5 C 2,4 C 0,0 km/h (0 Bft)
02.03.2016 02:45 2,4 C 94 % 1007,6 hPa 0,0 l/m 0,0 km/h (0 Bft) S-SW 197 0 min 0,000 mm 0,0 UV-I 0 W/m 1,5 C 2,4 C 0,0 km/h (0 Bft)
02.03.2016 02:50 2,4 C 94 % 1007,5 hPa 0,0 l/m 0,1 km/h (0 Bft) W 281 0 min 0,000 mm 0,0 UV-I 0 W/m 1,5 C 2,4 C 1,6 km/h (1 Bft)
02.03.2016 02:55 2,5 C 94 % 1007,5 hPa 0,0 l/m 0,3 km/h (0 Bft) W 274 0 min 0,000 mm 0,0 UV-I 0 W/m 1,6 C 2,5 C 3,2 km/h (1 Bft)
02.03.2016 03:00 2,6 C 94 % 1007,4 hPa 0,0 l/m 0,0 km/h (0 Bft) S-SW 211 0 min 0,000 mm 0,0 UV-I 0 W/m 1,7 C 2,6 C 1,6 km/h (1 Bft)
02.03.2016 03:05 2,6 C 94 % 1007,2 hPa 0,0 l/m 0,0 km/h (0 Bft) S 183 0 min 0,000 mm 0,0 UV-I 0 W/m 1,7 C 2,6 C 0,0 km/h (0 Bft)
02.03.2016 03:10 2,6 C 94 % 1007,1 hPa 0,0 l/m 0,0 km/h (0 Bft) SW 219 0 min 0,000 mm 0,0 UV-I 0 W/m 1,7 C 2,6 C 0,0 km/h (0 Bft)
02.03.2016 03:15 2,6 C 94 % 1007,0 hPa 0,0 l/m 0,0 km/h (0 Bft) O-SO 106 0 min 0,000 mm 0,0 UV-I 0 W/m 1,7 C 2,6 C 0,0 km/h (0 Bft)
02.03.2016 03:20 2,7 C 94 % 1006,9 hPa 0,0 l/m 0,0 km/h (0 Bft) S-SW 209 0 min 0,000 mm 0,0 UV-I 0 W/m 1,8 C 2,7 C 1,6 km/h (1 Bft)
02.03.2016 03:25 2,7 C 94 % 1006,8 hPa 0,0 l/m 0,0 km/h (0 Bft) W 279 0 min 0,000 mm 0,0 UV-I 0 W/m 1,8 C 2,7 C 0,0 km/h (0 Bft)
02.03.2016 03:30 2,7 C 94 % 1006,6 hPa 0,0 l/m 0,2 km/h (0 Bft) SW 229 0 min 0,000 mm 0,0 UV-I 0 W/m 1,8 C 2,7 C 4,8 km/h (1 Bft)
02.03.2016 03:35 2,8 C 94 % 1006,5 hPa 0,0 l/m 0,6 km/h (0 Bft) NW 305 0 min 0,000 mm 0,0 UV-I 0 W/m 1,9 C 2,8 C 6,4 km/h (2 Bft)
02.03.2016 03:40 2,8 C 94 % 1006,5 hPa 0,0 l/m 0,0 km/h (0 Bft) NW 305 0 min 0,000 mm 0,0 UV-I 0 W/m 1,9 C 2,8 C 0,0 km/h (0 Bft)
02.03.2016 03:45 2,8 C 94 % 1006,4 hPa 0,0 l/m 0,0 km/h (0 Bft) W-SW 253 0 min 0,000 mm 0,0 UV-I 0 W/m 1,9 C 2,8 C 0,0 km/h (0 Bft)
02.03.2016 03:50 2,8 C 94 % 1006,3 hPa 0,0 l/m 0,0 km/h (0 Bft) W-SW 252 0 min 0,000 mm 0,0 UV-I 0 W/m 1,9 C 2,8 C 0,0 km/h (0 Bft)
02.03.2016 03:55 2,8 C 94 % 1006,2 hPa 0,0 l/m 0,0 km/h (0 Bft) S 171 0 min 0,000 mm 0,0 UV-I 0 W/m 1,9 C 2,8 C 0,0 km/h (0 Bft)
02.03.2016 04:00 2,8 C 94 % 1006,1 hPa 0,0 l/m 0,0 km/h (0 Bft) SW 230 0 min 0,000 mm 0,0 UV-I 0 W/m 1,9 C 2,8 C 0,0 km/h (0 Bft)
02.03.2016 04:05 2,9 C 94 % 1006,0 hPa 0,0 l/m 0,0 km/h (0 Bft) SW 230 0 min 0,000 mm 0,0 UV-I 0 W/m 2,0 C 2,9 C 0,0 km/h (0 Bft)
02.03.2016 04:10 2,9 C 94 % 1005,9 hPa 0,0 l/m 0,0 km/h (0 Bft) SW 231 0 min 0,000 mm 0,0 UV-I 0 W/m 2,0 C 2,9 C 0,0 km/h (0 Bft)
02.03.2016 04:15 2,9 C 94 % 1005,8 hPa 0,0 l/m 0,1 km/h (0 Bft) W-NW 291 0 min 0,000 mm 0,0 UV-I 0 W/m 2,0 C 2,9 C 1,6 km/h (1 Bft)
02.03.2016 04:20 2,9 C 94 % 1005,8 hPa 0,0 l/m 0,0 km/h (0 Bft) S 169 0 min 0,000 mm 0,0 UV-I 0 W/m 2,0 C 2,9 C 0,0 km/h (0 Bft)
02.03.2016 04:25 3,0 C 94 % 1005,7 hPa 0,0 l/m 0,0 km/h (0 Bft) NW 315 0 min 0,000 mm 0,0 UV-I 0 W/m 2,1 C 3,0 C 0,0 km/h (0 Bft)
02.03.2016 04:30 3,1 C 94 % 1005,7 hPa 0,0 l/m 1,5 km/h (1 Bft) W-SW 252 0 min 0,000 mm 0,0 UV-I 0 W/m 2,2 C 3,1 C 8,0 km/h (2 Bft)
02.03.2016 04:35 3,1 C 94 % 1005,7 hPa 0,0 l/m 2,0 km/h (1 Bft) W-NW 300 0 min 0,000 mm 0,0 UV-I 0 W/m 2,2 C 3,1 C 11,3 km/h (2 Bft)
02.03.2016 04:40 3,2 C 94 % 1005,6 hPa 0,0 l/m 0,9 km/h (0 Bft) SW 232 0 min 0,000 mm 0,0 UV-I 0 W/m 2,3 C 3,2 C 8,0 km/h (2 Bft)
02.03.2016 04:44 3,2 C 94 % 1005,5 hPa 0,0 l/m 1,6 km/h (1 Bft) NO 34 0 min 0,000 mm 0,0 UV-I 0 W/m 2,3 C 3,2 C 6,4 km/h (2 Bft)
02.03.2016 04:45 3,2 C 94 % 1005,5 hPa 0,0 l/m 5,3 km/h (1 Bft) NW 308 0 min 0,000 mm 0,0 UV-I 0 W/m 2,3 C 3,2 C 9,7 km/h (2 Bft)
02.03.2016 04:50 3,3 C 94 % 1005,5 hPa 0,0 l/m 1,9 km/h (1 Bft) SW 223 0 min 0,000 mm 0,0 UV-I 0 W/m 2,4 C 3,3 C 8,0 km/h (2 Bft)
02.03.2016 04:55 3,3 C 94 % 1005,4 hPa 0,0 l/m 1,8 km/h (1 Bft) SW 234 0 min 0,000 mm 0,0 UV-I 0 W/m 2,4 C 3,3 C 8,0 km/h (2 Bft)
02.03.2016 05:00 3,3 C 94 % 1005,4 hPa 0,0 l/m 1,6 km/h (1 Bft) W-NW 287 0 min 0,000 mm 0,0 UV-I 0 W/m 2,4 C 3,3 C 9,7 km/h (2 Bft)
02.03.2016 05:05 3,3 C 94 % 1005,3 hPa 0,0 l/m 2,5 km/h (1 Bft) S-SW 192 0 min 0,000 mm 0,0 UV-I 0 W/m 2,4 C 3,3 C 9,7 km/h (2 Bft)
02.03.2016 05:10 3,3 C 94 % 1005,2 hPa 0,0 l/m 2,0 km/h (1 Bft) W-SW 251 0 min 0,000 mm 0,0 UV-I 0 W/m 2,4 C 3,3 C 9,7 km/h (2 Bft)
02.03.2016 05:15 3,3 C 94 % 1005,2 hPa 0,0 l/m 3,4 km/h (1 Bft) W-SW 257 0 min 0,000 mm 0,0 UV-I 0 W/m 2,4 C 3,3 C 9,7 km/h (2 Bft)
02.03.2016 05:20 3,4 C 94 % 1005,1 hPa 0,0 l/m 4,9 km/h (1 Bft) NW 318 0 min 0,000 mm 0,0 UV-I 0 W/m 2,5 C 3,4 C 14,5 km/h (3 Bft)
02.03.2016 05:25 3,4 C 94 % 1005,0 hPa 0,0 l/m 3,9 km/h (1 Bft) W-SW 245 0 min 0,000 mm 0,0 UV-I 0 W/m 2,5 C 3,4 C 16,1 km/h (3 Bft)
02.03.2016 05:30 3,4 C 94 % 1004,8 hPa 0,0 l/m 3,0 km/h (1 Bft) W-NW 286 0 min 0,000 mm 0,0 UV-I 0 W/m 2,5 C 3,4 C 9,7 km/h (2 Bft)
02.03.2016 05:35 3,5 C 94 % 1004,8 hPa 0,0 l/m 5,0 km/h (1 Bft) W-NW 284 0 min 0,000 mm 0,0 UV-I 0 W/m 2,6 C 3,5 C 11,3 km/h (2 Bft)
02.03.2016 05:40 3,5 C 94 % 1004,7 hPa 0,0 l/m 1,5 km/h (1 Bft) W 273 0 min 0,000 mm 0,0 UV-I 0 W/m 2,6 C 3,5 C 4,8 km/h (1 Bft)
02.03.2016 05:45 3,5 C 94 % 1004,7 hPa 0,0 l/m 2,0 km/h (1 Bft) SW 215 0 min 0,000 mm 0,0 UV-I 0 W/m 2,6 C 3,5 C 9,7 km/h (2 Bft)
02.03.2016 05:50 3,5 C 94 % 1004,6 hPa 0,0 l/m 3,3 km/h (1 Bft) S-SW 197 0 min 0,000 mm 0,0 UV-I 0 W/m 2,6 C 3,5 C 19,3 km/h (3 Bft)
02.03.2016 05:55 3,6 C 94 % 1004,4 hPa 0,0 l/m 0,7 km/h (0 Bft) W-SW 246 0 min 0,000 mm 0,0 UV-I 0 W/m 2,7 C 3,6 C 6,4 km/h (2 Bft)
02.03.2016 06:00 3,5 C 94 % 1004,3 hPa 0,0 l/m 0,9 km/h (0 Bft) S-SW 200 0 min 0,000 mm 0,0 UV-I 0 W/m 2,6 C 3,5 C 6,4 km/h (2 Bft)
02.03.2016 06:05 3,6 C 94 % 1004,2 hPa 0,0 l/m 1,3 km/h (1 Bft) S-SW 206 0 min 0,000 mm 0,0 UV-I 0 W/m 2,7 C 3,6 C 12,9 km/h (3 Bft)
02.03.2016 06:10 3,6 C 94 % 1004,1 hPa 0,0 l/m 1,6 km/h (1 Bft) S-SO 163 0 min 0,000 mm 0,0 UV-I 0 W/m 2,7 C 3,6 C 9,7 km/h (2 Bft)
02.03.2016 06:15 3,6 C 94 % 1003,8 hPa 0,0 l/m 2,4 km/h (1 Bft) S-SW 198 0 min 0,000 mm 0,0 UV-I 0 W/m 2,7 C 3,6 C 11,3 km/h (2 Bft)
02.03.2016 06:20 3,7 C 94 % 1003,8 hPa 0,0 l/m 3,4 km/h (1 Bft) S-SW 203 0 min 0,000 mm 0,0 UV-I 0 W/m 2,8 C 3,7 C 17,7 km/h (3 Bft)
02.03.2016 06:25 3,7 C 94 % 1003,7 hPa 0,0 l/m 0,9 km/h (0 Bft) S 174 0 min 0,000 mm 0,0 UV-I 0 W/m 2,8 C 3,7 C 14,5 km/h (3 Bft)
02.03.2016 06:30 3,7 C 94 % 1003,7 hPa 0,0 l/m 2,7 km/h (1 Bft) W 261 0 min 0,000 mm 0,0 UV-I 0 W/m 2,8 C 3,7 C 14,5 km/h (3 Bft)
02.03.2016 06:35 3,8 C 94 % 1003,6 hPa 0,0 l/m 1,6 km/h (1 Bft) W 277 0 min 0,000 mm 0,0 UV-I 0 W/m 2,9 C 3,8 C 17,7 km/h (3 Bft)
02.03.2016 06:40 3,8 C 94 % 1003,6 hPa 0,0 l/m 1,1 km/h (1 Bft) SW 221 0 min 0,000 mm 0,0 UV-I 0 W/m 2,9 C 3,8 C 11,3 km/h (2 Bft)
02.03.2016 06:45 3,8 C 94 % 1003,5 hPa 0,0 l/m 2,1 km/h (1 Bft) SW 236 0 min 0,000 mm 0,0 UV-I 0 W/m 2,9 C 3,8 C 12,9 km/h (3 Bft)
02.03.2016 06:50 3,9 C 94 % 1003,4 hPa 0,0 l/m 1,9 km/h (1 Bft) W-SW 238 0 min 0,000 mm 0,0 UV-I 0 W/m 3,0 C 3,9 C 12,9 km/h (3 Bft)
02.03.2016 06:55 4,1 C 94 % 1003,3 hPa 0,0 l/m 2,9 km/h (1 Bft) W-SW 250 0 min 0,000 mm 0,0 UV-I 0 W/m 3,2 C 4,1 C 12,9 km/h (3 Bft)
02.03.2016 07:00 4,1 C 94 % 1003,2 hPa 0,0 l/m 0,9 km/h (0 Bft) W 267 0 min 0,000 mm 0,0 UV-I 0 W/m 3,2 C 4,1 C 4,8 km/h (1 Bft)
02.03.2016 07:05 4,2 C 94 % 1003,1 hPa 0,0 l/m 0,6 km/h (0 Bft) W 261 0 min 0,000 mm 0,0 UV-I 0 W/m 3,3 C 4,2 C 3,2 km/h (1 Bft)
02.03.2016 07:10 4,1 C 93 % 1003,0 hPa 0,0 l/m 0,2 km/h (0 Bft) W-SW 250 0 min 0,000 mm 0,0 UV-I 0 W/m 3,1 C 4,1 C 3,2 km/h (1 Bft)
02.03.2016 07:15 4,1 C 94 % 1002,9 hPa 0,0 l/m 0,5 km/h (0 Bft) NW 304 0 min 0,000 mm 0,0 UV-I 0 W/m 3,2 C 4,1 C 4,8 km/h (1 Bft)
02.03.2016 07:20 4,2 C 94 % 1002,7 hPa 0,0 l/m 0,6 km/h (0 Bft) W 279 0 min 0,000 mm 0,0 UV-I 2 W/m 3,3 C 4,2 C 6,4 km/h (2 Bft)
02.03.2016 07:25 4,2 C 94 % 1002,8 hPa 0,0 l/m 0,8 km/h (0 Bft) W-NW 286 0 min 0,000 mm 0,0 UV-I 7 W/m 3,3 C 4,2 C 6,4 km/h (2 Bft)
02.03.2016 07:30 4,4 C 94 % 1002,7 hPa 0,0 l/m 1,2 km/h (1 Bft) W-NW 293 0 min 0,000 mm 0,0 UV-I 11 W/m 3,5 C 4,4 C 6,4 km/h (2 Bft)
02.03.2016 07:35 4,6 C 93 % 1002,6 hPa 0,0 l/m 1,9 km/h (1 Bft) W-NW 295 0 min 0,000 mm 0,0 UV-I 13 W/m 3,6 C 4,6 C 8,0 km/h (2 Bft)
02.03.2016 07:40 4,7 C 93 % 1002,5 hPa 0,0 l/m 3,4 km/h (1 Bft) W 267 0 min 0,000 mm 0,0 UV-I 16 W/m 3,7 C 4,7 C 11,3 km/h (2 Bft)
02.03.2016 07:45 4,8 C 92 % 1002,4 hPa 0,0 l/m 3,7 km/h (1 Bft) W 262 0 min 0,000 mm 0,0 UV-I 20 W/m 3,6 C 4,8 C 19,3 km/h (3 Bft)
02.03.2016 07:50 4,9 C 91 % 1002,4 hPa 0,0 l/m 1,8 km/h (1 Bft) W-SW 241 0 min 0,000 mm 0,0 UV-I 25 W/m 3,6 C 4,9 C 9,7 km/h (2 Bft)
02.03.2016 07:55 5,1 C 91 % 1002,4 hPa 0,0 l/m 2,3 km/h (1 Bft) NW 304 0 min 0,000 mm 0,0 UV-I 30 W/m 3,8 C 5,1 C 12,9 km/h (3 Bft)
02.03.2016 08:00 5,2 C 91 % 1002,2 hPa 0,0 l/m 3,1 km/h (1 Bft) W-NW 286 0 min 0,000 mm 0,0 UV-I 36 W/m 3,9 C 5,2 C 14,5 km/h (3 Bft)
02.03.2016 08:05 5,4 C 90 % 1002,2 hPa 0,0 l/m 5,5 km/h (1 Bft) S-SW 206 0 min 0,000 mm 0,0 UV-I 44 W/m 3,9 C 5,4 C 17,7 km/h (3 Bft)
02.03.2016 08:10 5,6 C 90 % 1002,2 hPa 0,0 l/m 4,0 km/h (1 Bft) N 351 0 min 0,000 mm 0,0 UV-I 47 W/m 4,1 C 5,6 C 17,7 km/h (3 Bft)
02.03.2016 08:15 5,6 C 90 % 1002,2 hPa 0,0 l/m 6,8 km/h (2 Bft) S-SW 211 0 min 0,000 mm 0,0 UV-I 48 W/m 4,1 C 5,3 C 27,4 km/h (4 Bft)
02.03.2016 08:20 5,7 C 90 % 1002,2 hPa 0,0 l/m 8,0 km/h (2 Bft) W-SW 250 0 min 0,000 mm 0,0 UV-I 45 W/m 4,2 C 4,3 C 20,9 km/h (4 Bft)
02.03.2016 08:25 5,7 C 90 % 1002,2 hPa 0,0 l/m 8,4 km/h (2 Bft) SW 224 0 min 0,000 mm 0,0 UV-I 36 W/m 4,2 C 4,0 C 22,5 km/h (4 Bft)
02.03.2016 08:30 5,8 C 90 % 1002,3 hPa 0,0 l/m 7,0 km/h (2 Bft) W 281 0 min 0,000 mm 0,0 UV-I 27 W/m 4,3 C 5,3 C 19,3 km/h (3 Bft)
02.03.2016 08:35 5,8 C 90 % 1002,3 hPa 0,0 l/m 8,3 km/h (2 Bft) W-SW 251 0 min 0,000 mm 0,0 UV-I 31 W/m 4,3 C 4,2 C 17,7 km/h (3 Bft)
02.03.2016 08:40 5,9 C 89 % 1002,1 hPa 0,0 l/m 7,1 km/h (2 Bft) SO 139 0 min 0,000 mm 0,0 UV-I 35 W/m 4,2 C 5,3 C 17,7 km/h (3 Bft)
02.03.2016 08:45 5,9 C 89 % 1002,1 hPa 0,0 l/m 7,1 km/h (2 Bft) W-SW 244 0 min 0,000 mm 0,0 UV-I 41 W/m 4,2 C 5,3 C 17,7 km/h (3 Bft)
02.03.2016 08:50 5,9 C 90 % 1001,9 hPa 0,0 l/m 6,7 km/h (2 Bft) W 263 0 min 0,000 mm 0,0 UV-I 50 W/m 4,4 C 5,7 C 14,5 km/h (3 Bft)
02.03.2016 08:55 5,9 C 89 % 1001,8 hPa 0,0 l/m 7,5 km/h (2 Bft) S 187 0 min 0,000 mm 0,0 UV-I 76 W/m 4,2 C 5,0 C 22,5 km/h (4 Bft)
02.03.2016 09:00 5,9 C 90 % 1001,7 hPa 0,0 l/m 6,2 km/h (2 Bft) SW 221 0 min 0,025 mm 0,0 UV-I 79 W/m 4,4 C 5,9 C 14,5 km/h (3 Bft)
02.03.2016 09:05 5,9 C 90 % 1001,6 hPa 0,0 l/m 7,3 km/h (2 Bft) S-SW 200 0 min 0,000 mm 0,0 UV-I 65 W/m 4,4 C 5,1 C 17,7 km/h (3 Bft)
02.03.2016 09:10 5,9 C 90 % 1001,4 hPa 0,0 l/m 3,9 km/h (1 Bft) W 269 0 min 0,000 mm 0,0 UV-I 64 W/m 4,4 C 5,9 C 12,9 km/h (3 Bft)
02.03.2016 09:15 5,9 C 90 % 1001,4 hPa 0,0 l/m 4,5 km/h (1 Bft) SW 236 0 min 0,000 mm 0,0 UV-I 49 W/m 4,4 C 5,9 C 9,7 km/h (2 Bft)
02.03.2016 09:20 5,9 C 91 % 1001,4 hPa 0,0 l/m 4,1 km/h (1 Bft) SW 229 0 min 0,000 mm 0,0 UV-I 33 W/m 4,5 C 5,9 C 12,9 km/h (3 Bft)
02.03.2016 09:25 5,9 C 91 % 1001,4 hPa 0,0 l/m 3,9 km/h (1 Bft) W 267 0 min 0,000 mm 0,0 UV-I 32 W/m 4,5 C 5,9 C 12,9 km/h (3 Bft)
02.03.2016 09:30 5,8 C 91 % 1001,4 hPa 0,0 l/m 4,2 km/h (1 Bft) W-SW 237 0 min 0,000 mm 0,0 UV-I 38 W/m 4,4 C 5,8 C 12,9 km/h (3 Bft)
02.03.2016 09:35 5,8 C 91 % 1001,3 hPa 0,0 l/m 3,2 km/h (1 Bft) SW 215 0 min 0,000 mm 0,0 UV-I 37 W/m 4,4 C 5,8 C 11,3 km/h (2 Bft)
02.03.2016 09:40 5,8 C 92 % 1001,2 hPa 0,0 l/m 4,4 km/h (1 Bft) W-SW 244 0 min 0,000 mm 0,0 UV-I 52 W/m 4,6 C 5,8 C 14,5 km/h (3 Bft)
02.03.2016 09:45 5,9 C 92 % 1001,0 hPa 0,0 l/m 1,9 km/h (1 Bft) W-SW 246 0 min 0,000 mm 0,0 UV-I 44 W/m 4,7 C 5,9 C 9,7 km/h (2 Bft)
02.03.2016 09:50 5,9 C 92 % 1000,9 hPa 0,0 l/m 0,1 km/h (0 Bft) W-SW 254 0 min 0,000 mm 0,0 UV-I 33 W/m 4,7 C 5,9 C 1,6 km/h (1 Bft)
02.03.2016 09:55 5,9 C 92 % 1000,8 hPa 0,2 l/m 0,1 km/h (0 Bft) S-SW 207 0 min 0,000 mm 0,0 UV-I 42 W/m 4,7 C 5,9 C 1,6 km/h (1 Bft)
02.03.2016 10:00 5,9 C 92 % 1000,9 hPa 0,0 l/m 1,8 km/h (1 Bft) S-SW 196 0 min 0,026 mm 0,0 UV-I 33 W/m 4,7 C 5,9 C 12,9 km/h (3 Bft)
02.03.2016 10:05 5,9 C 92 % 1000,8 hPa 0,0 l/m 0,5 km/h (0 Bft) S 180 0 min 0,000 mm 0,0 UV-I 32 W/m 4,7 C 5,9 C 4,8 km/h (1 Bft)
02.03.2016 10:10 5,9 C 92 % 1000,6 hPa 0,2 l/m 1,8 km/h (1 Bft) S 178 0 min 0,000 mm 0,0 UV-I 31 W/m 4,7 C 5,9 C 12,9 km/h (3 Bft)
02.03.2016 10:15 5,9 C 93 % 1000,5 hPa 0,0 l/m 0,8 km/h (0 Bft) S 191 0 min 0,000 mm 0,0 UV-I 36 W/m 4,9 C 5,9 C 8,0 km/h (2 Bft)
02.03.2016 10:20 5,9 C 93 % 1000,4 hPa 0,0 l/m 2,8 km/h (1 Bft) W-SW 254 0 min 0,000 mm 0,0 UV-I 31 W/m 4,9 C 5,9 C 16,1 km/h (3 Bft)
02.03.2016 10:25 5,9 C 93 % 1000,2 hPa 0,2 l/m 3,4 km/h (1 Bft) W 266 0 min 0,000 mm 0,0 UV-I 42 W/m 4,9 C 5,9 C 16,1 km/h (3 Bft)
02.03.2016 10:30 5,9 C 93 % 1000,1 hPa 0,0 l/m 4,3 km/h (1 Bft) SW 232 0 min 0,000 mm 0,0 UV-I 49 W/m 4,9 C 5,9 C 14,5 km/h (3 Bft)
02.03.2016 10:35 5,9 C 93 % 1000,1 hPa 0,2 l/m 2,7 km/h (1 Bft) W 274 0 min 0,000 mm 0,0 UV-I 47 W/m 4,9 C 5,9 C 11,3 km/h (2 Bft)
02.03.2016 10:40 5,9 C 93 % 999,8 hPa 0,0 l/m 1,0 km/h (0 Bft) W-SW 254 0 min 0,000 mm 0,0 UV-I 41 W/m 4,9 C 5,9 C 9,7 km/h (2 Bft)
02.03.2016 10:45 5,9 C 93 % 999,7 hPa 0,0 l/m 3,3 km/h (1 Bft) S-SW 211 0 min 0,000 mm 0,3 UV-I 55 W/m 4,9 C 5,9 C 12,9 km/h (3 Bft)
02.03.2016 10:50 5,9 C 93 % 999,7 hPa 0,0 l/m 2,6 km/h (1 Bft) S 190 0 min 0,000 mm 0,2 UV-I 57 W/m 4,9 C 5,9 C 9,7 km/h (2 Bft)
02.03.2016 10:55 6,0 C 93 % 999,7 hPa 0,0 l/m 1,3 km/h (1 Bft) W 275 0 min 0,000 mm 0,1 UV-I 52 W/m 5,0 C 6,0 C 11,3 km/h (2 Bft)
02.03.2016 11:00 6,0 C 92 % 999,6 hPa 0,0 l/m 3,9 km/h (1 Bft) SW 230 0 min 0,025 mm 0,0 UV-I 40 W/m 4,8 C 6,0 C 12,9 km/h (3 Bft)
02.03.2016 11:05 6,0 C 93 % 999,5 hPa 0,0 l/m 3,3 km/h (1 Bft) SW 219 0 min 0,000 mm 0,5 UV-I 70 W/m 5,0 C 6,0 C 11,3 km/h (2 Bft)
02.03.2016 11:10 6,0 C 92 % 999,5 hPa 0,0 l/m 5,5 km/h (1 Bft) SW 228 0 min 0,000 mm 0,3 UV-I 60 W/m 4,8 C 6,0 C 12,9 km/h (3 Bft)
02.03.2016 11:15 6,1 C 92 % 999,4 hPa 0,2 l/m 5,6 km/h (1 Bft) S 171 0 min 0,000 mm 0,4 UV-I 63 W/m 4,9 C 6,1 C 16,1 km/h (3 Bft)
02.03.2016 11:20 6,1 C 92 % 999,4 hPa 0,0 l/m 6,9 km/h (2 Bft) S-SO 161 0 min 0,000 mm 0,5 UV-I 63 W/m 4,9 C 5,7 C 19,3 km/h (3 Bft)
02.03.2016 11:25 6,1 C 92 % 999,4 hPa 0,0 l/m 5,1 km/h (1 Bft) W 262 0 min 0,000 mm 0,6 UV-I 73 W/m 4,9 C 6,1 C 20,9 km/h (4 Bft)
02.03.2016 11:30 6,1 C 92 % 999,3 hPa 0,2 l/m 5,5 km/h (1 Bft) S 170 0 min 0,000 mm 0,6 UV-I 76 W/m 4,9 C 6,1 C 19,3 km/h (3 Bft)
02.03.2016 11:35 6,1 C 92 % 999,3 hPa 0,0 l/m 10,2 km/h (2 Bft) S-SW 198 0 min 0,000 mm 0,6 UV-I 75 W/m 4,9 C 3,2 C 20,9 km/h (4 Bft)
02.03.2016 11:40 6,1 C 92 % 999,2 hPa 0,0 l/m 8,2 km/h (2 Bft) SW 222 0 min 0,000 mm 0,6 UV-I 75 W/m 4,9 C 4,6 C 17,7 km/h (3 Bft)
02.03.2016 11:45 6,1 C 92 % 999,1 hPa 0,0 l/m 8,0 km/h (2 Bft) W-SW 254 0 min 0,000 mm 0,4 UV-I 66 W/m 4,9 C 4,8 C 16,1 km/h (3 Bft)
02.03.2016 11:50 6,0 C 92 % 1000,1 hPa 0,6 l/m 9,6 km/h (2 Bft) NO 37 0 min 0,000 mm 0,0 UV-I 25 W/m 4,8 C 3,5 C 25,7 km/h (4 Bft)
02.03.2016 11:55 4,9 C 89 % 999,6 hPa 0,8 l/m 10,8 km/h (2 Bft) W-NW 285 0 min 0,000 mm 0,0 UV-I 38 W/m 3,2 C 1,4 C 22,5 km/h (4 Bft)
02.03.2016 12:00 4,6 C 91 % 999,5 hPa 0,0 l/m 9,3 km/h (2 Bft) W-NW 292 0 min 0,026 mm 0,5 UV-I 85 W/m 3,3 C 2,1 C 20,9 km/h (4 Bft)
02.03.2016 12:05 4,5 C 91 % 999,4 hPa 0,0 l/m 3,1 km/h (1 Bft) W-NW 283 0 min 0,000 mm 0,8 UV-I 116 W/m 3,2 C 4,5 C 12,9 km/h (3 Bft)
02.03.2016 12:10 4,6 C 91 % 999,3 hPa 0,0 l/m 1,6 km/h (1 Bft) W-NW 286 0 min 0,000 mm 0,6 UV-I 85 W/m 3,3 C 4,6 C 8,0 km/h (2 Bft)
02.03.2016 12:15 4,7 C 91 % 999,4 hPa 0,0 l/m 0,3 km/h (0 Bft) NW 316 0 min 0,000 mm 0,7 UV-I 93 W/m 3,4 C 4,7 C 1,6 km/h (1 Bft)
02.03.2016 12:20 4,8 C 90 % 999,6 hPa 0,0 l/m 6,8 km/h (2 Bft) W-NW 294 0 min 0,000 mm 0,6 UV-I 76 W/m 3,3 C 4,5 C 25,7 km/h (4 Bft)
02.03.2016 12:25 4,8 C 90 % 999,9 hPa 0,2 l/m 14,2 km/h (3 Bft) W 273 0 min 0,000 mm 0,2 UV-I 54 W/m 3,3 C -0,7 C 30,6 km/h (5 Bft)
02.03.2016 12:30 4,4 C 89 % 999,7 hPa 0,2 l/m 14,4 km/h (3 Bft) W 275 0 min 0,000 mm 0,2 UV-I 53 W/m 2,7 C -1,3 C 33,8 km/h (5 Bft)
02.03.2016 12:35 4,3 C 90 % 999,7 hPa 0,0 l/m 10,8 km/h (2 Bft) NW 305 0 min 0,000 mm 0,8 UV-I 107 W/m 2,8 C 0,7 C 29,0 km/h (5 Bft)
02.03.2016 12:40 4,4 C 90 % 999,7 hPa 0,0 l/m 10,5 km/h (2 Bft) W-NW 299 0 min 0,000 mm 1,1 UV-I 158 W/m 2,9 C 1,1 C 19,3 km/h (3 Bft)
02.03.2016 12:45 4,4 C 90 % 999,5 hPa 0,0 l/m 10,4 km/h (2 Bft) NW 309 0 min 0,000 mm 1,2 UV-I 191 W/m 2,9 C 1,1 C 22,5 km/h (4 Bft)
02.03.2016 12:50 4,6 C 89 % 999,4 hPa 0,0 l/m 9,8 km/h (2 Bft) W-NW 298 0 min 0,000 mm 1,5 UV-I 258 W/m 2,9 C 1,8 C 22,5 km/h (4 Bft)
02.03.2016 12:55 4,7 C 89 % 999,6 hPa 0,0 l/m 9,9 km/h (2 Bft) W-SW 237 0 min 0,000 mm 1,5 UV-I 217 W/m 3,0 C 1,8 C 24,1 km/h (4 Bft)
02.03.2016 13:00 4,7 C 85 % 999,7 hPa 0,0 l/m 10,6 km/h (2 Bft) N 9 0 min 0,050 mm 1,3 UV-I 195 W/m 2,4 C 1,3 C 25,7 km/h (4 Bft)
02.03.2016 13:05 4,6 C 84 % 999,7 hPa 0,0 l/m 10,4 km/h (2 Bft) W-NW 287 0 min 0,000 mm 1,2 UV-I 185 W/m 2,1 C 1,3 C 27,4 km/h (4 Bft)
02.03.2016 13:10 4,6 C 84 % 999,8 hPa 0,0 l/m 9,0 km/h (2 Bft) W 278 0 min 0,000 mm 1,3 UV-I 191 W/m 2,1 C 2,4 C 20,9 km/h (4 Bft)
02.03.2016 13:15 4,6 C 84 % 999,8 hPa 0,0 l/m 10,3 km/h (2 Bft) W-NW 295 0 min 0,000 mm 1,3 UV-I 212 W/m 2,1 C 1,4 C 20,9 km/h (4 Bft)
02.03.2016 13:20 4,6 C 84 % 999,6 hPa 0,0 l/m 7,9 km/h (2 Bft) W-NW 297 0 min 0,000 mm 1,2 UV-I 185 W/m 2,1 C 3,3 C 14,5 km/h (3 Bft)
02.03.2016 13:25 4,6 C 84 % 999,6 hPa 0,0 l/m 5,3 km/h (1 Bft) W-NW 300 0 min 0,000 mm 1,0 UV-I 157 W/m 2,1 C 4,6 C 19,3 km/h (3 Bft)
02.03.2016 13:30 4,7 C 85 % 999,6 hPa 0,0 l/m 5,1 km/h (1 Bft) W-NW 294 0 min 0,000 mm 1,2 UV-I 191 W/m 2,4 C 4,7 C 19,3 km/h (3 Bft)
02.03.2016 13:35 4,7 C 85 % 999,7 hPa 0,0 l/m 6,7 km/h (2 Bft) W-NW 286 0 min 0,000 mm 1,2 UV-I 209 W/m 2,4 C 4,4 C 12,9 km/h (3 Bft)
02.03.2016 13:40 4,8 C 87 % 999,7 hPa 0,0 l/m 4,1 km/h (1 Bft) W-SW 252 0 min 0,000 mm 1,2 UV-I 207 W/m 2,8 C 4,8 C 14,5 km/h (3 Bft)
02.03.2016 13:45 4,7 C 85 % 999,6 hPa 0,0 l/m 7,8 km/h (2 Bft) NW 305 0 min 0,000 mm 1,2 UV-I 217 W/m 2,4 C 3,5 C 22,5 km/h (4 Bft)
02.03.2016 13:50 4,7 C 83 % 999,5 hPa 0,0 l/m 8,8 km/h (2 Bft) W-NW 301 0 min 0,000 mm 1,1 UV-I 198 W/m 2,1 C 2,6 C 22,5 km/h (4 Bft)
02.03.2016 13:55 4,7 C 82 % 999,6 hPa 0,0 l/m 9,5 km/h (2 Bft) W-NW 296 0 min 0,000 mm 1,1 UV-I 193 W/m 1,9 C 2,1 C 20,9 km/h (4 Bft)
02.03.2016 14:00 4,6 C 81 % 999,6 hPa 0,0 l/m 7,8 km/h (2 Bft) W 266 0 min 0,077 mm 1,0 UV-I 175 W/m 1,6 C 3,4 C 25,7 km/h (4 Bft)
02.03.2016 14:05 4,6 C 81 % 999,6 hPa 0,0 l/m 10,2 km/h (2 Bft) W 273 0 min 0,000 mm 0,9 UV-I 162 W/m 1,6 C 1,5 C 20,9 km/h (4 Bft)
02.03.2016 14:10 4,5 C 82 % 999,7 hPa 0,0 l/m 7,3 km/h (2 Bft) W-SW 250 0 min 0,000 mm 0,9 UV-I 149 W/m 1,7 C 3,7 C 16,1 km/h (3 Bft)
02.03.2016 14:15 4,4 C 82 % 999,6 hPa 0,0 l/m 5,6 km/h (1 Bft) W 279 0 min 0,000 mm 0,8 UV-I 142 W/m 1,6 C 4,4 C 14,5 km/h (3 Bft)
02.03.2016 14:20 4,4 C 83 % 999,6 hPa 0,0 l/m 4,0 km/h (1 Bft) W 265 0 min 0,000 mm 0,8 UV-I 144 W/m 1,8 C 4,4 C 14,5 km/h (3 Bft)
02.03.2016 14:25 4,4 C 82 % 999,6 hPa 0,0 l/m 7,2 km/h (2 Bft) W-NW 297 0 min 0,000 mm 0,8 UV-I 144 W/m 1,6 C 3,7 C 17,7 km/h (3 Bft)
02.03.2016 14:30 4,5 C 83 % 999,5 hPa 0,0 l/m 4,3 km/h (1 Bft) W 272 0 min 0,000 mm 0,8 UV-I 143 W/m 1,9 C 4,5 C 12,9 km/h (3 Bft)
02.03.2016 14:35 4,5 C 82 % 999,5 hPa 0,0 l/m 8,4 km/h (2 Bft) W 265 0 min 0,000 mm 0,8 UV-I 141 W/m 1,7 C 2,7 C 19,3 km/h (3 Bft)
02.03.2016 14:40 4,5 C 82 % 999,5 hPa 0,0 l/m 6,9 km/h (2 Bft) NW 308 0 min 0,000 mm 0,8 UV-I 137 W/m 1,7 C 4,1 C 17,7 km/h (3 Bft)
02.03.2016 14:45 4,5 C 81 % 999,5 hPa 0,0 l/m 3,1 km/h (1 Bft) NW 304 0 min 0,000 mm 0,8 UV-I 138 W/m 1,5 C 4,5 C 12,9 km/h (3 Bft)
02.03.2016 14:50 4,5 C 81 % 999,4 hPa 0,0 l/m 2,3 km/h (1 Bft) W 277 0 min 0,000 mm 0,7 UV-I 134 W/m 1,5 C 4,5 C 12,9 km/h (3 Bft)
02.03.2016 14:55 4,5 C 82 % 999,4 hPa 0,0 l/m 2,8 km/h (1 Bft) W 263 0 min 0,000 mm 0,7 UV-I 130 W/m 1,7 C 4,5 C 12,9 km/h (3 Bft)
02.03.2016 15:00 4,5 C 82 % 999,4 hPa 0,0 l/m 3,3 km/h (1 Bft) W 279 0 min 0,076 mm 0,7 UV-I 129 W/m 1,7 C 4,5 C 16,1 km/h (3 Bft)
02.03.2016 15:05 4,4 C 81 % 999,2 hPa 0,0 l/m 0,2 km/h (0 Bft) W 259 0 min 0,000 mm 0,7 UV-I 128 W/m 1,4 C 4,4 C 3,2 km/h (1 Bft)
02.03.2016 15:10 4,5 C 81 % 999,2 hPa 0,0 l/m 2,7 km/h (1 Bft) W-NW 282 0 min 0,000 mm 0,7 UV-I 133 W/m 1,5 C 4,5 C 14,5 km/h (3 Bft)
02.03.2016 15:15 4,5 C 80 % 999,1 hPa 0,0 l/m 5,9 km/h (2 Bft) W 265 0 min 0,000 mm 0,7 UV-I 134 W/m 1,4 C 4,5 C 16,1 km/h (3 Bft)
02.03.2016 15:20 4,6 C 80 % 999,2 hPa 0,0 l/m 1,4 km/h (1 Bft) W-SW 250 0 min 0,000 mm 0,7 UV-I 143 W/m 1,5 C 4,6 C 12,9 km/h (3 Bft)
02.03.2016 15:25 4,6 C 80 % 999,3 hPa 0,0 l/m 1,9 km/h (1 Bft) W-SW 248 0 min 0,000 mm 0,7 UV-I 145 W/m 1,5 C 4,6 C 9,7 km/h (2 Bft)
02.03.2016 15:30 4,7 C 80 % 999,3 hPa 0,0 l/m 1,2 km/h (1 Bft) SW 221 0 min 0,000 mm 0,7 UV-I 145 W/m 1,6 C 4,7 C 9,7 km/h (2 Bft)
02.03.2016 15:35 4,7 C 82 % 999,4 hPa 0,0 l/m 0,0 km/h (0 Bft) SW 225 0 min 0,000 mm 0,6 UV-I 136 W/m 1,9 C 4,7 C 0,0 km/h (0 Bft)
02.03.2016 15:40 4,8 C 81 % 999,3 hPa 0,0 l/m 0,0 km/h (0 Bft) W-SW 247 0 min 0,000 mm 0,6 UV-I 132 W/m 1,8 C 4,8 C 0,0 km/h (0 Bft)
02.03.2016 15:45 4,9 C 81 % 999,3 hPa 0,0 l/m 0,3 km/h (0 Bft) SW 223 0 min 0,000 mm 0,6 UV-I 131 W/m 1,9 C 4,9 C 4,8 km/h (1 Bft)
02.03.2016 15:50 4,9 C 79 % 999,1 hPa 0,0 l/m 0,2 km/h (0 Bft) S-SW 192 0 min 0,000 mm 0,6 UV-I 126 W/m 1,6 C 4,9 C 1,6 km/h (1 Bft)
02.03.2016 15:55 4,9 C 78 % 999,2 hPa 0,0 l/m 0,1 km/h (0 Bft) SW 233 0 min 0,000 mm 0,5 UV-I 123 W/m 1,4 C 4,9 C 1,6 km/h (1 Bft)
02.03.2016 16:00 5,0 C 79 % 999,1 hPa 0,0 l/m 0,0 km/h (0 Bft) SW 215 0 min 0,051 mm 0,5 UV-I 122 W/m 1,7 C 5,0 C 0,0 km/h (0 Bft)
02.03.2016 16:05 5,1 C 78 % 999,1 hPa 0,0 l/m 0,0 km/h (0 Bft) SW 231 0 min 0,000 mm 0,5 UV-I 127 W/m 1,6 C 5,1 C 0,0 km/h (0 Bft)
02.03.2016 16:10 5,1 C 79 % 999,1 hPa 0,0 l/m 0,3 km/h (0 Bft) SW 217 0 min 0,000 mm 0,5 UV-I 141 W/m 1,8 C 5,1 C 4,8 km/h (1 Bft)
02.03.2016 16:15 5,2 C 78 % 999,1 hPa 0,0 l/m 0,3 km/h (0 Bft) W-SW 250 5 min 0,000 mm 0,5 UV-I 170 W/m 1,7 C 5,2 C 4,8 km/h (1 Bft)
02.03.2016 16:20 5,2 C 78 % 999,2 hPa 0,0 l/m 0,4 km/h (0 Bft) S-SW 198 0 min 0,000 mm 0,5 UV-I 147 W/m 1,7 C 5,2 C 4,8 km/h (1 Bft)
02.03.2016 16:25 5,2 C 77 % 999,1 hPa 0,0 l/m 0,5 km/h (0 Bft) W-SW 244 0 min 0,000 mm 0,5 UV-I 123 W/m 1,5 C 5,2 C 4,8 km/h (1 Bft)
02.03.2016 16:30 5,1 C 77 % 999,1 hPa 0,0 l/m 1,3 km/h (1 Bft) W-SW 241 0 min 0,000 mm 0,2 UV-I 105 W/m 1,4 C 5,1 C 6,4 km/h (2 Bft)
02.03.2016 16:35 5,1 C 76 % 998,9 hPa 0,0 l/m 1,0 km/h (0 Bft) W-SW 240 0 min 0,000 mm 0,0 UV-I 96 W/m 1,2 C 5,1 C 6,4 km/h (2 Bft)
02.03.2016 16:40 5,0 C 77 % 998,9 hPa 0,0 l/m 1,1 km/h (1 Bft) SW 221 0 min 0,000 mm 0,0 UV-I 84 W/m 1,3 C 5,0 C 6,4 km/h (2 Bft)
02.03.2016 16:45 4,9 C 77 % 998,9 hPa 0,0 l/m 0,7 km/h (0 Bft) SW 230 0 min 0,000 mm 0,0 UV-I 79 W/m 1,2 C 4,9 C 6,4 km/h (2 Bft)
02.03.2016 16:50 4,9 C 78 % 998,9 hPa 0,0 l/m 0,0 km/h (0 Bft) W-SW 238 0 min 0,000 mm 0,0 UV-I 72 W/m 1,4 C 4,9 C 0,0 km/h (0 Bft)
02.03.2016 16:55 4,9 C 77 % 999,0 hPa 0,0 l/m 0,0 km/h (0 Bft) SW 218 0 min 0,000 mm 0,0 UV-I 62 W/m 1,2 C 4,9 C 1,6 km/h (1 Bft)
02.03.2016 17:00 4,9 C 78 % 999,0 hPa 0,0 l/m 0,1 km/h (0 Bft) S-SW 211 0 min 0,050 mm 0,0 UV-I 57 W/m 1,4 C 4,9 C 1,6 km/h (1 Bft)
02.03.2016 17:05 5,0 C 78 % 998,9 hPa 0,0 l/m 0,0 km/h (0 Bft) SW 215 5 min 0,000 mm 0,0 UV-I 112 W/m 1,5 C 5,0 C 0,0 km/h (0 Bft)
02.03.2016 17:10 5,4 C 78 % 998,8 hPa 0,0 l/m 0,0 km/h (0 Bft) W 269 5 min 0,000 mm 0,0 UV-I 130 W/m 1,9 C 5,4 C 0,0 km/h (0 Bft)
02.03.2016 17:15 5,7 C 74 % 998,8 hPa 0,0 l/m 0,1 km/h (0 Bft) W-SW 248 5 min 0,000 mm 0,0 UV-I 147 W/m 1,4 C 5,7 C 3,2 km/h (1 Bft)
02.03.2016 17:20 5,7 C 74 % 998,7 hPa 0,0 l/m 0,3 km/h (0 Bft) W-SW 245 5 min 0,000 mm 0,0 UV-I 135 W/m 1,4 C 5,7 C 3,2 km/h (1 Bft)
02.03.2016 17:25 5,7 C 73 % 998,7 hPa 0,0 l/m 0,3 km/h (0 Bft) SW 224 5 min 0,000 mm 0,0 UV-I 117 W/m 1,2 C 5,7 C 3,2 km/h (1 Bft)
02.03.2016 17:30 5,7 C 73 % 998,7 hPa 0,0 l/m 0,3 km/h (0 Bft) W-SW 239 5 min 0,000 mm 0,0 UV-I 95 W/m 1,2 C 5,7 C 3,2 km/h (1 Bft)
02.03.2016 17:35 5,8 C 74 % 998,8 hPa 0,0 l/m 0,1 km/h (0 Bft) SW 227 5 min 0,000 mm 0,0 UV-I 85 W/m 1,5 C 5,8 C 1,6 km/h (1 Bft)
02.03.2016 17:40 5,7 C 74 % 998,8 hPa 0,0 l/m 0,0 km/h (0 Bft) W-SW 255 5 min 0,000 mm 0,0 UV-I 56 W/m 1,4 C 5,7 C 1,6 km/h (1 Bft)
02.03.2016 17:45 5,5 C 75 % 998,9 hPa 0,0 l/m 0,2 km/h (0 Bft) S-SW 211 5 min 0,000 mm 0,0 UV-I 40 W/m 1,4 C 5,5 C 4,8 km/h (1 Bft)
02.03.2016 17:50 5,3 C 75 % 998,8 hPa 0,0 l/m 0,3 km/h (0 Bft) S-SW 205 5 min 0,000 mm 0,0 UV-I 34 W/m 1,2 C 5,3 C 6,4 km/h (2 Bft)
02.03.2016 17:55 5,2 C 75 % 998,7 hPa 0,0 l/m 0,2 km/h (0 Bft) SW 219 5 min 0,000 mm 0,0 UV-I 29 W/m 1,1 C 5,2 C 3,2 km/h (1 Bft)
02.03.2016 18:00 5,0 C 75 % 998,7 hPa 0,0 l/m 0,3 km/h (0 Bft) W-SW 245 0 min 0,026 mm 0,0 UV-I 17 W/m 0,9 C 5,0 C 3,2 km/h (1 Bft)
02.03.2016 18:05 4,8 C 76 % 998,8 hPa 0,0 l/m 0,0 km/h (0 Bft) SW 236 0 min 0,000 mm 0,0 UV-I 10 W/m 0,9 C 4,8 C 1,6 km/h (1 Bft)
02.03.2016 18:10 4,7 C 76 % 998,8 hPa 0,0 l/m 0,0 km/h (0 Bft) S-SW 195 0 min 0,000 mm 0,0 UV-I 7 W/m 0,8 C 4,7 C 0,0 km/h (0 Bft)
02.03.2016 18:15 4,6 C 77 % 999,0 hPa 0,0 l/m 0,0 km/h (0 Bft) S-SO 147 0 min 0,000 mm 0,0 UV-I 2 W/m 0,9 C 4,6 C 0,0 km/h (0 Bft)
02.03.2016 18:20 4,4 C 78 % 999,0 hPa 0,0 l/m 0,4 km/h (0 Bft) O-SO 115 0 min 0,000 mm 0,0 UV-I 0 W/m 0,9 C 4,4 C 3,2 km/h (1 Bft)
02.03.2016 18:25 4,3 C 78 % 998,9 hPa 0,0 l/m 3,6 km/h (1 Bft) O 96 0 min 0,000 mm 0,0 UV-I 0 W/m 0,8 C 4,3 C 14,5 km/h (3 Bft)
02.03.2016 18:30 4,3 C 78 % 999,0 hPa 0,0 l/m 2,2 km/h (1 Bft) SO 140 0 min 0,000 mm 0,0 UV-I 0 W/m 0,8 C 4,3 C 8,0 km/h (2 Bft)
02.03.2016 18:35 4,3 C 78 % 998,9 hPa 0,0 l/m 2,6 km/h (1 Bft) O-SO 109 0 min 0,000 mm 0,0 UV-I 0 W/m 0,8 C 4,3 C 8,0 km/h (2 Bft)
02.03.2016 18:40 4,2 C 79 % 998,8 hPa 0,0 l/m 0,0 km/h (0 Bft) O 91 0 min 0,000 mm 0,0 UV-I 0 W/m 0,9 C 4,2 C 1,6 km/h (1 Bft)
02.03.2016 18:45 4,2 C 79 % 999,0 hPa 0,0 l/m 0,1 km/h (0 Bft) O-SO 107 0 min 0,000 mm 0,0 UV-I 0 W/m 0,9 C 4,2 C 1,6 km/h (1 Bft)
02.03.2016 18:50 4,1 C 79 % 999,1 hPa 0,0 l/m 0,1 km/h (0 Bft) O-SO 110 0 min 0,000 mm 0,0 UV-I 0 W/m 0,8 C 4,1 C 1,6 km/h (1 Bft)
02.03.2016 18:55 4,1 C 79 % 999,1 hPa 0,0 l/m 0,7 km/h (0 Bft) SO 146 0 min 0,000 mm 0,0 UV-I 0 W/m 0,8 C 4,1 C 11,3 km/h (2 Bft)
02.03.2016 19:00 4,1 C 79 % 999,1 hPa 0,0 l/m 0,0 km/h (0 Bft) O-NO 61 0 min 0,000 mm 0,0 UV-I 0 W/m 0,8 C 4,1 C 0,0 km/h (0 Bft)
02.03.2016 19:05 3,9 C 80 % 999,2 hPa 0,0 l/m 0,0 km/h (0 Bft) O 80 0 min 0,000 mm 0,0 UV-I 0 W/m 0,8 C 3,9 C 1,6 km/h (1 Bft)
02.03.2016 19:10 3,9 C 80 % 999,1 hPa 0,0 l/m 0,1 km/h (0 Bft) SO 146 0 min 0,000 mm 0,0 UV-I 0 W/m 0,8 C 3,9 C 8,0 km/h (2 Bft)
02.03.2016 19:15 3,9 C 81 % 999,0 hPa 0,0 l/m 1,9 km/h (1 Bft) S-SO 147 0 min 0,000 mm 0,0 UV-I 0 W/m 0,9 C 3,9 C 11,3 km/h (2 Bft)
02.03.2016 19:20 4,0 C 81 % 998,8 hPa 0,0 l/m 5,9 km/h (2 Bft) O-SO 112 0 min 0,000 mm 0,0 UV-I 0 W/m 1,0 C 4,0 C 14,5 km/h (3 Bft)
02.03.2016 19:25 4,1 C 81 % 998,9 hPa 0,0 l/m 1,8 km/h (1 Bft) SO 136 0 min 0,000 mm 0,0 UV-I 0 W/m 1,1 C 4,1 C 8,0 km/h (2 Bft)
02.03.2016 19:30 3,9 C 81 % 998,8 hPa 0,0 l/m 0,6 km/h (0 Bft) SO 140 0 min 0,000 mm 0,0 UV-I 0 W/m 0,9 C 3,9 C 8,0 km/h (2 Bft)
02.03.2016 19:35 3,8 C 82 % 999,0 hPa 0,0 l/m 0,0 km/h (0 Bft) SO 138 0 min 0,000 mm 0,0 UV-I 0 W/m 1,0 C 3,8 C 0,0 km/h (0 Bft)
02.03.2016 19:40 3,8 C 82 % 999,2 hPa 0,0 l/m 2,2 km/h (1 Bft) SO 126 0 min 0,000 mm 0,0 UV-I 0 W/m 1,0 C 3,8 C 9,7 km/h (2 Bft)
02.03.2016 19:45 3,6 C 83 % 999,1 hPa 0,0 l/m 0,6 km/h (0 Bft) S-SO 149 0 min 0,000 mm 0,0 UV-I 0 W/m 1,0 C 3,6 C 8,0 km/h (2 Bft)
02.03.2016 19:50 3,6 C 83 % 999,1 hPa 0,0 l/m 3,3 km/h (1 Bft) O-SO 119 0 min 0,000 mm 0,0 UV-I 0 W/m 1,0 C 3,6 C 9,7 km/h (2 Bft)
02.03.2016 19:55 3,7 C 83 % 999,1 hPa 0,0 l/m 5,2 km/h (1 Bft) O-SO 121 0 min 0,000 mm 0,0 UV-I 0 W/m 1,1 C 3,7 C 12,9 km/h (3 Bft)
02.03.2016 20:00 3,7 C 83 % 999,2 hPa 0,0 l/m 3,3 km/h (1 Bft) O-SO 112 0 min 0,000 mm 0,0 UV-I 0 W/m 1,1 C 3,7 C 9,7 km/h (2 Bft)
02.03.2016 20:05 3,7 C 83 % 999,2 hPa 0,0 l/m 4,1 km/h (1 Bft) SO 144 0 min 0,000 mm 0,0 UV-I 0 W/m 1,1 C 3,7 C 17,7 km/h (3 Bft)
02.03.2016 20:10 3,7 C 82 % 999,3 hPa 0,0 l/m 1,6 km/h (1 Bft) S 169 0 min 0,000 mm 0,0 UV-I 0 W/m 0,9 C 3,7 C 9,7 km/h (2 Bft)
02.03.2016 20:15 3,5 C 83 % 999,2 hPa 0,0 l/m 0,1 km/h (0 Bft) SW 216 0 min 0,000 mm 0,0 UV-I 0 W/m 0,9 C 3,5 C 1,6 km/h (1 Bft)
02.03.2016 20:20 3,4 C 83 % 999,2 hPa 0,0 l/m 0,4 km/h (0 Bft) O-SO 114 0 min 0,000 mm 0,0 UV-I 0 W/m 0,8 C 3,4 C 6,4 km/h (2 Bft)
02.03.2016 20:25 3,4 C 83 % 999,1 hPa 0,0 l/m 1,0 km/h (0 Bft) O-SO 121 0 min 0,000 mm 0,0 UV-I 0 W/m 0,8 C 3,4 C 9,7 km/h (2 Bft)
02.03.2016 20:30 3,3 C 83 % 999,0 hPa 0,0 l/m 0,0 km/h (0 Bft) O-SO 107 0 min 0,000 mm 0,0 UV-I 0 W/m 0,7 C 3,3 C 0,0 km/h (0 Bft)
02.03.2016 20:35 3,3 C 84 % 999,1 hPa 0,0 l/m 3,0 km/h (1 Bft) SO 133 0 min 0,000 mm 0,0 UV-I 0 W/m 0,9 C 3,3 C 9,7 km/h (2 Bft)
02.03.2016 20:40 3,3 C 84 % 999,2 hPa 0,0 l/m 3,4 km/h (1 Bft) SO 145 0 min 0,000 mm 0,0 UV-I 0 W/m 0,9 C 3,3 C 11,3 km/h (2 Bft)
02.03.2016 20:45 3,3 C 83 % 999,2 hPa 0,0 l/m 1,0 km/h (0 Bft) SO 133 0 min 0,000 mm 0,0 UV-I 0 W/m 0,7 C 3,3 C 12,9 km/h (3 Bft)
02.03.2016 20:50 3,3 C 83 % 999,2 hPa 0,0 l/m 0,0 km/h (0 Bft) S 188 0 min 0,000 mm 0,0 UV-I 0 W/m 0,7 C 3,3 C 1,6 km/h (1 Bft)
02.03.2016 20:55 3,3 C 83 % 999,2 hPa 0,0 l/m 1,1 km/h (1 Bft) O 95 0 min 0,000 mm 0,0 UV-I 0 W/m 0,7 C 3,3 C 8,0 km/h (2 Bft)
02.03.2016 21:00 3,3 C 83 % 999,3 hPa 0,0 l/m 2,6 km/h (1 Bft) W-SW 254 0 min 0,000 mm 0,0 UV-I 0 W/m 0,7 C 3,3 C 12,9 km/h (3 Bft)
02.03.2016 21:05 3,3 C 83 % 999,2 hPa 0,0 l/m 5,3 km/h (1 Bft) S-SW 207 0 min 0,000 mm 0,0 UV-I 0 W/m 0,7 C 3,3 C 17,7 km/h (3 Bft)
02.03.2016 21:10 3,4 C 83 % 999,1 hPa 0,0 l/m 1,8 km/h (1 Bft) S-SO 168 0 min 0,000 mm 0,0 UV-I 0 W/m 0,8 C 3,4 C 11,3 km/h (2 Bft)
02.03.2016 21:15 3,4 C 83 % 999,1 hPa 0,0 l/m 6,9 km/h (2 Bft) SW 225 0 min 0,000 mm 0,0 UV-I 0 W/m 0,8 C 2,9 C 16,1 km/h (3 Bft)
02.03.2016 21:20 3,4 C 83 % 999,0 hPa 0,0 l/m 6,1 km/h (2 Bft) SW 236 0 min 0,000 mm 0,0 UV-I 0 W/m 0,8 C 3,4 C 16,1 km/h (3 Bft)
02.03.2016 21:25 3,6 C 83 % 999,1 hPa 0,0 l/m 4,9 km/h (1 Bft) SW 226 0 min 0,000 mm 0,0 UV-I 0 W/m 1,0 C 3,6 C 14,5 km/h (3 Bft)
02.03.2016 21:30 3,6 C 83 % 999,0 hPa 0,0 l/m 5,9 km/h (2 Bft) W 263 0 min 0,000 mm 0,0 UV-I 0 W/m 1,0 C 3,6 C 19,3 km/h (3 Bft)
02.03.2016 21:35 3,7 C 83 % 999,1 hPa 0,0 l/m 0,2 km/h (0 Bft) W-SW 254 0 min 0,000 mm 0,0 UV-I 0 W/m 1,1 C 3,7 C 4,8 km/h (1 Bft)
02.03.2016 21:40 3,7 C 83 % 999,1 hPa 0,0 l/m 3,5 km/h (1 Bft) S 173 0 min 0,000 mm 0,0 UV-I 0 W/m 1,1 C 3,7 C 11,3 km/h (2 Bft)
02.03.2016 21:45 3,8 C 83 % 999,0 hPa 0,0 l/m 1,6 km/h (1 Bft) S-SW 203 0 min 0,000 mm 0,0 UV-I 0 W/m 1,2 C 3,8 C 9,7 km/h (2 Bft)
02.03.2016 21:50 3,8 C 83 % 999,1 hPa 0,0 l/m 4,9 km/h (1 Bft) W-SW 242 0 min 0,000 mm 0,0 UV-I 0 W/m 1,2 C 3,8 C 9,7 km/h (2 Bft)
02.03.2016 21:55 3,8 C 83 % 999,2 hPa 0,0 l/m 8,5 km/h (2 Bft) S-SW 209 0 min 0,000 mm 0,0 UV-I 0 W/m 1,2 C 1,9 C 19,3 km/h (3 Bft)
02.03.2016 22:00 3,7 C 84 % 999,2 hPa 0,0 l/m 9,9 km/h (2 Bft) S 171 0 min 0,025 mm 0,0 UV-I 0 W/m 1,3 C 0,7 C 19,3 km/h (3 Bft)
02.03.2016 22:05 3,4 C 86 % 999,2 hPa 0,2 l/m 7,6 km/h (2 Bft) N-NW 338 0 min 0,000 mm 0,0 UV-I 0 W/m 1,3 C 2,3 C 20,9 km/h (4 Bft)
02.03.2016 22:10 3,2 C 87 % 999,1 hPa 0,0 l/m 12,7 km/h (3 Bft) S 179 0 min 0,000 mm 0,0 UV-I 0 W/m 1,2 C -1,8 C 24,1 km/h (4 Bft)
02.03.2016 22:15 3,0 C 88 % 999,1 hPa 0,0 l/m 6,2 km/h (2 Bft) W 261 0 min 0,000 mm 0,0 UV-I 0 W/m 1,2 C 3,0 C 16,1 km/h (3 Bft)
02.03.2016 22:20 2,9 C 89 % 999,1 hPa 0,0 l/m 8,2 km/h (2 Bft) S 173 0 min 0,000 mm 0,0 UV-I 0 W/m 1,3 C 1,2 C 17,7 km/h (3 Bft)
02.03.2016 22:25 2,8 C 89 % 999,2 hPa 0,0 l/m 9,1 km/h (2 Bft) S-SO 166 0 min 0,000 mm 0,0 UV-I 0 W/m 1,2 C 0,4 C 19,3 km/h (3 Bft)
02.03.2016 22:30 2,8 C 89 % 999,2 hPa 0,0 l/m 8,1 km/h (2 Bft) S-SW 208 0 min 0,000 mm 0,0 UV-I 0 W/m 1,2 C 1,2 C 17,7 km/h (3 Bft)
02.03.2016 22:35 2,7 C 90 % 999,2 hPa 0,0 l/m 10,7 km/h (2 Bft) SW 218 0 min 0,000 mm 0,0 UV-I 0 W/m 1,2 C -1,0 C 22,5 km/h (4 Bft)
02.03.2016 22:40 2,6 C 90 % 999,1 hPa 0,0 l/m 4,2 km/h (1 Bft) S 175 0 min 0,000 mm 0,0 UV-I 0 W/m 1,1 C 2,6 C 12,9 km/h (3 Bft)
02.03.2016 22:45 2,6 C 90 % 999,3 hPa 0,0 l/m 5,9 km/h (2 Bft) S 183 0 min 0,000 mm 0,0 UV-I 0 W/m 1,1 C 2,6 C 16,1 km/h (3 Bft)
02.03.2016 22:50 2,6 C 90 % 999,3 hPa 0,0 l/m 2,7 km/h (1 Bft) S-SW 197 0 min 0,000 mm 0,0 UV-I 0 W/m 1,1 C 2,6 C 9,7 km/h (2 Bft)
02.03.2016 22:55 2,6 C 90 % 999,2 hPa 0,0 l/m 2,9 km/h (1 Bft) S 178 0 min 0,000 mm 0,0 UV-I 0 W/m 1,1 C 2,6 C 8,0 km/h (2 Bft)
02.03.2016 23:00 2,6 C 91 % 999,2 hPa 0,0 l/m 1,6 km/h (1 Bft) S 190 0 min 0,000 mm 0,0 UV-I 0 W/m 1,3 C 2,6 C 11,3 km/h (2 Bft)
02.03.2016 23:05 2,5 C 91 % 999,2 hPa 0,0 l/m 7,0 km/h (2 Bft) SW 217 0 min 0,000 mm 0,0 UV-I 0 W/m 1,2 C 1,9 C 17,7 km/h (3 Bft)
02.03.2016 23:10 2,6 C 90 % 999,1 hPa 0,0 l/m 5,7 km/h (1 Bft) S 170 0 min 0,000 mm 0,0 UV-I 0 W/m 1,1 C 2,6 C 16,1 km/h (3 Bft)
02.03.2016 23:15 2,6 C 90 % 999,0 hPa 0,0 l/m 3,1 km/h (1 Bft) S 180 0 min 0,000 mm 0,0 UV-I 0 W/m 1,1 C 2,6 C 11,3 km/h (2 Bft)
02.03.2016 23:20 2,6 C 89 % 999,2 hPa 0,0 l/m 5,6 km/h (1 Bft) W-SW 238 0 min 0,000 mm 0,0 UV-I 0 W/m 1,0 C 2,6 C 14,5 km/h (3 Bft)
02.03.2016 23:25 2,7 C 89 % 999,1 hPa 0,0 l/m 2,1 km/h (1 Bft) S-SW 195 0 min 0,000 mm 0,0 UV-I 0 W/m 1,1 C 2,7 C 9,7 km/h (2 Bft)
02.03.2016 23:30 2,7 C 89 % 999,0 hPa 0,0 l/m 5,1 km/h (1 Bft) S 175 0 min 0,000 mm 0,0 UV-I 0 W/m 1,1 C 2,7 C 16,1 km/h (3 Bft)
02.03.2016 23:35 2,7 C 88 % 999,0 hPa 0,0 l/m 7,4 km/h (2 Bft) S 184 0 min 0,000 mm 0,0 UV-I 0 W/m 0,9 C 1,7 C 16,1 km/h (3 Bft)
02.03.2016 23:40 2,7 C 88 % 999,0 hPa 0,0 l/m 7,5 km/h (2 Bft) SW 223 0 min 0,000 mm 0,0 UV-I 0 W/m 0,9 C 1,6 C 14,5 km/h (3 Bft)
02.03.2016 23:45 2,6 C 88 % 999,0 hPa 0,0 l/m 6,4 km/h (2 Bft) SW 233 0 min 0,000 mm 0,0 UV-I 0 W/m 0,8 C 2,6 C 12,9 km/h (3 Bft)
02.03.2016 23:50 2,6 C 89 % 999,0 hPa 0,0 l/m 6,7 km/h (2 Bft) S-SW 208 0 min 0,000 mm 0,0 UV-I 0 W/m 1,0 C 2,3 C 12,9 km/h (3 Bft)
02.03.2016 23:55 2,5 C 88 % 999,1 hPa 0,0 l/m 5,1 km/h (1 Bft) S-SW 209 0 min 0,000 mm 0,0 UV-I 0 W/m 0,7 C 2,5 C 12,9 km/h (3 Bft)
_ Min-Zeit 00:00 17:25 17:20 - 00:10 - - - - - - 00:00 22:10 00:10
Minimum _ 1,6 C 73 % 998,7 hPa - 0,0 km/h (0 Bft) - - - - - - 0,6 C -1,8 C 0,0 km/h (0 Bft)
_ Max-Zeit 11:10 00:35 00:00 11:55 12:30 - - 16:15 14:00 12:50 12:50 10:55 11:15 12:30
Maximum _ 6,1 C 94 % 1010,5 hPa 0,8 l/m 14,4 km/h
W (3 Bft)
- - 5 min 0,077 mm 1,5 UV-I 258 W/m 5,0 C 6,1 C 33,8 km/h
W-NW (5 Bft)
Durchschnitt _ 4,0 C 88 % 1001,9 hPa #3,2 l/m 3,0 km/h (1 Bft) W - #1:00 h #0,457 mm 0,7 UV-I 91 W/m 2,2 C 3,7 C 10,0 km/h (2 Bft)